Showing default

UMBRA-07, 58297

Orbit data source: Space-Track

UMBRA-07, 58297 is a payload satellite owned by Umbra Labs (US) in SSO that was launched on Sat, 11 Nov 2023 UTC via an FALCON 9 launch vehicle from the Air Force Western Test Range (AFWTR). Payload-class satellites include a variety of spacecraft equipped with specific instruments for various scientific and technological missions. These include communications satellites like Starlink; space stations such as the ISS; scientific satellites like the Hubble; Earth observation satellites from companies like Planet Labs, Umbra, and HawkEye 360; GPS; miniature CubeSats for education and research; and military/defense satellites.

Loading next visibility...
Identifier
58297, 2023-174AT
Orbit
SSO
Country
Flag of USUS
Related business
Manufacturer
Umbra Labs
Mission
Operational Commercial Radar Imaging
Bus & Motor
ESPASAT?, Unknown motor
Mass
84 kg wet, 79 kg dry
Launch date (UTC)
2023-11-11 (2 years ago)
Launch vehicle
FALCON 9
Launch site
Air Force Western Test Range (AFWTR)
Object type
Payload
Rocket body
Debris
Shape & HBR
Box + 2 Pan + 1 Dish, 2.0 m
Radar Cross Section
6.513 m², Large (>1 m²)

Expand to show TLE details & history
Last TLE update: 8 hours ago

TLE from 8 hours ago
0 UMBRA-07
1 58297U 23174AT  25304.17418687  .00016670  00000-0  12231-2 0  9995
2 58297  97.4133   4.0431 0005009 133.5654 226.5989 15.03543391108939
Epoch: 2025-10-31T04:10Z
TLE epoch observation values (Epoch: 2025-10-31T04:10:49.745Z)
Latitude
-0.00001°
Longitude
-98.38658°
Altitude
561.436 km
Speed
7.579 km/s
True Right ascension
00h 16m 10s
True Declination
0° 00' 00"
Sunlit
Object was in full shadow at epoch
Visualization orbit readout
Latitude
Unknown
Longitude
Unknown
Altitude
Unknown
Speed
Unknown
Apparent Right ascension
Unknown
Apparent Declination
Unknown
Sunlit
N/A
Visualization observer readout
Local Sidereal Time
07:34:32
Azimuth
Unknown
Elevation
Unknown
Doppler factor
Unknown
Orbital elements
Apogee altitude
556.44 km
Perigee altitude
549.497 km
Semi-major axis
6,931.106 km
Eccentricity
0.0005
Inclination
97.4133°
RAAN
4.0431°
Arg. of periapsis
133.5654°
True anomaly
226.55721°
Mean anomaly
226.5989°
Eccentric anomaly
226.57806°
Mean motion
3.76131 °/min
Orbital period
95.71 mins
BSTAR
0.0012231
Loading maneuver chart data...
Computing Atmospheric mass density...
Loading historical data...
Loading historical data...
Loading historical data...
Loading historical data...
Loading historical data...
Loading historical data...
Loading historical data...

Documentation

Showing up to 5 results
|